AG4OX Weather Reports


time (UTC)temp
F
wind
direction
speed
knots
gust
knots
rain 1hr
in
rain 24hr
in
rain mn
in
humidity
%
barometer
mb
20260831140004 88 123 1.7 5.2 0.00 0.09 0.00 75 1015.7
20260831135005 88 93 1.7 4.3 0.00 0.09 0.00 75 1015.7
20260831134005 88 118 1.7 2.6 0.00 0.09 0.00 74 1015.5
20260831133005 86 341 0.9 2.6 0.00 0.09 0.00 76 1015.4
20260831132006 86 21 0.9 2.6 0.00 0.09 0.00 77 1015.4
20260831131006 84 357 0.9 2.6 0.00 0.09 0.00 79 1015.4
20260831130004 81 304 0.9 2.6 0.00 0.09 0.00 82 1015.2
20260831125005 80 257 0.9 1.7 0.00 0.09 0.00 82 1015.2
20260831124006 79 305 0.9 2.6 0.00 0.09 0.00 81 1015.2
20260831121007 77 355 1.7 2.6 0.00 0.09 0.00 71 1015.1
20260831120005 77 339 0.0 1.7 0.00 0.09 0.00 68 1014.9
20260831114006 76 184 0.0 0.9 0.00 0.09 0.00 68 1014.6
20260831113005 76 184 0.0 0.0 0.00 0.09 0.00 68 1014.7
20260831112006 76 184 0.0 0.0 0.00 0.09 0.00 68 1014.4
20260831111005 75 184 0.0 0.0 0.00 0.09 0.00 68 1014.3
20260831110006 75 184 0.0 0.0 0.00 0.09 0.00 69 1014.1
20260831105005 75 184 0.0 0.0 0.00 0.09 0.00 69 1013.9
20260831104007 75 184 0.0 0.0 0.00 0.09 0.00 69 1013.9
20260831103005 75 184 0.0 0.0 0.00 0.09 0.00 69 1013.8
20260831102005 75 184 0.0 0.9 0.00 0.09 0.00 69 1013.7
20260831101005 75 184 0.0 0.0 0.00 0.09 0.00 70 1013.7
20260831100005 75 184 0.0 0.0 0.00 0.09 0.00 71 1013.7
20260831095005 75 184 0.0 0.0 0.00 0.09 0.00 71 1013.7
20260831094005 75 184 0.0 0.9 0.00 0.09 0.00 71 1013.7
20260831093007 75 184 0.0 0.9 0.00 0.09 0.00 71 1013.6
20260831090004 75 184 0.9 1.7 0.00 0.09 0.00 72 1013.7
20260831085005 75 184 0.0 0.9 0.00 0.09 0.00 74 1014.0
20260831084007 75 184 0.0 0.9 0.00 0.09 0.00 74 1014.0
20260831081005 75 32 0.0 0.9 0.00 0.09 0.00 75 1013.9
20260831080005 75 32 0.9 1.7 0.00 0.09 0.00 76 1013.9
20260831075006 75 59 0.0 1.7 0.00 0.09 0.00 77 1013.9
20260831074005 75 148 0.9 1.7 0.00 0.09 0.00 78 1013.8
20260831073005 75 126 0.9 1.7 0.00 0.09 0.00 78 1014.0
20260831071005 75 69 0.0 0.9 0.00 0.09 0.00 80 1014.1
20260831070005 76 73 0.0 1.7 0.00 0.09 0.00 80 1014.1
20260831065005 76 111 0.0 1.7 0.00 0.09 0.00 79 1014.1
20260831064006 76 97 0.9 2.6 0.00 0.09 0.00 79 1014.1
20260831063005 76 77 0.9 1.7 0.00 0.09 0.00 79 1014.2
20260831062005 76 49 0.0 6.1 0.00 0.09 0.00 80 1014.3
20260831060005 76 91 2.6 5.2 0.00 0.09 0.00 71 1014.5
20260831055006 75 119 0.9 0.9 0.00 0.09 0.00 70 1014.6
20260831053005 75 72 0.9 1.7 0.00 0.09 0.00 72 1014.8
20260831052005 75 72 0.0 0.0 0.00 0.09 0.00 73 1014.9
20260831051006 75 72 0.0 0.9 0.00 0.09 0.00 73 1014.9
20260831050005 75 72 0.0 0.9 0.00 0.09 0.00 74 1015.0
20260831045007 75 72 0.0 0.0 0.00 0.09 0.00 75 1015.1
20260831044005 75 72 0.0 0.0 0.00 0.09 0.00 75 1015.3
20260831043005 75 72 0.0 0.9 0.00 0.09 0.00 75 1015.4
20260831042005 75 72 0.0 0.0 0.00 0.09 0.00 75 1015.5
20260831040005 76 72 0.0 0.0 0.00 0.09 0.00 77 1015.6
20260831035005 76 72 0.0 0.9 0.00 0.09 0.09 77 1015.7
20260831034005 76 72 0.0 0.9 0.00 0.09 0.09 78 1015.6
20260831033005 76 72 0.0 0.0 0.00 0.09 0.09 78 1015.8
20260831032006 76 72 0.0 0.9 0.00 0.09 0.09 77 1015.8
20260831031005 76 72 0.0 0.0 0.00 0.09 0.09 79 1015.7
20260831030006 76 72 0.0 0.0 0.00 0.09 0.09 80 1015.6
20260831025006 76 72 0.0 0.9 0.00 0.09 0.09 82 1015.5
20260831024005 76 72 0.0 0.9 0.00 0.09 0.09 81 1015.4
20260831022005 77 72 0.0 0.0 0.00 0.09 0.09 83 1015.5
20260831021006 77 72 0.0 0.0 0.00 0.09 0.09 83 1015.5
20260831020006 77 72 0.0 0.9 0.00 0.09 0.09 83 1015.6
20260831015006 78 72 0.0 1.7 0.00 0.09 0.09 83 1015.6
20260831014005 78 60 0.0 2.6 0.00 0.09 0.09 83 1015.6
20260831013006 78 74 0.9 1.7 0.00 0.09 0.09 83 1015.6
20260831012005 78 91 0.9 2.6 0.00 0.09 0.09 83 1015.5
20260831011005 78 86 0.9 2.6 0.00 0.09 0.09 83 1015.6
20260831010005 78 72 0.9 2.6 0.00 0.09 0.09 83 1015.6
20260831005006 78 75 1.7 2.6 0.00 0.09 0.09 83 1015.5
20260831004005 79 69 1.7 2.6 0.00 0.09 0.09 82 1015.5
20260831002005 79 80 0.9 2.6 0.00 0.10 0.09 81 1015.3
20260831001005 80 38 0.0 1.7 0.00 0.10 0.09 80 1015.1
20260831000005 81 53 0.0 0.9 0.00 0.10 0.09 78 1015.2
20260830234006 82 53 0.0 1.7 0.00 0.10 0.09 76 1015.0
20260830233005 83 40 0.9 2.6 0.00 0.10 0.09 76 1014.8
20260830232006 84 81 0.9 2.6 0.00 0.10 0.09 74 1014.7
20260830231005 84 34 0.9 2.6 0.00 0.10 0.09 74 1014.5
20260830230005 84 73 1.7 5.2 0.00 0.10 0.09 73 1014.3
20260830225005 84 79 1.7 4.3 0.00 0.10 0.09 75 1014.3
20260830224006 84 85 3.5 6.1 0.00 0.10 0.09 73 1014.4
20260830223005 85 106 3.5 6.1 0.00 0.10 0.09 73 1014.3
20260830222005 86 76 2.6 5.2 0.00 0.10 0.09 71 1014.4
20260830220005 87 94 1.7 4.3 0.00 0.10 0.09 71 1014.2
20260830215005 87 127 1.7 2.6 0.00 0.10 0.09 68 1014.3
20260830214005 88 358 0.9 2.6 0.00 0.10 0.09 68 1014.2
20260830213006 88 107 1.7 2.6 0.00 0.10 0.09 69 1014.3
20260830212005 88 2 1.7 4.3 0.00 0.10 0.09 71 1014.3
20260830211005 87 39 0.9 4.3 0.00 0.10 0.09 75 1014.4
20260830210005 86 14 1.7 4.3 0.00 0.11 0.09 76 1014.4
20260830203006 85 57 1.7 5.2 0.00 0.14 0.09 75 1014.4
20260830202006 85 28 1.7 2.6 0.00 0.17 0.09 75 1014.6
20260830201005 84 323 0.9 2.6 0.00 0.33 0.09 75 1014.9
20260830200005 85 355 1.7 2.6 0.00 0.56 0.09 75 1015.0
20260830195006 84 1 1.7 2.6 0.00 0.56 0.09 77 1015.0
20260830194007 84 14 0.9 2.6 0.00 0.56 0.09 77 1015.1
20260830193006 84 2 0.9 2.6 0.00 0.56 0.09 78 1015.1
20260830192006 84 337 0.0 2.6 0.00 0.56 0.09 78 1015.1
20260830191006 83 274 1.7 5.2 0.00 0.56 0.09 77 1015.1
20260830190005 83 341 0.0 1.7 0.00 0.56 0.09 78 1015.2
20260830185007 82 74 0.0 1.7 0.00 0.56 0.09 80 1015.0
20260830184005 81 321 0.9 2.6 0.00 0.56 0.09 82 1015.2
20260830183007 80 123 0.0 2.6 0.00 0.56 0.09 83 1015.4
20260830182007 78 148 0.9 2.6 0.01 0.56 0.09 80 1015.7
20260830181007 77 87 1.7 6.1 0.01 0.56 0.09 74 1016.0
20260830180005 76 92 3.5 6.1 0.02 0.56 0.09 75 1016.3
20260830175006 75 79 3.5 7.8 0.04 0.56 0.09 76 1016.5
20260830174005 75 76 3.5 6.1 0.06 0.56 0.09 79 1016.5
20260830173005 76 82 2.6 4.3 0.09 0.56 0.09 74 1016.7
20260830172006 76 22 0.9 2.6 0.08 0.55 0.08 73 1016.7
20260830171005 76 82 0.9 4.3 0.08 0.55 0.08 74 1017.1
20260830170005 76 99 0.0 1.7 0.07 0.54 0.07 75 1017.2
20260830165006 76 104 0.0 1.7 0.05 0.52 0.05 76 1017.4
20260830164005 76 91 0.9 2.6 0.03 0.50 0.03 78 1017.5
20260830163006 77 114 1.7 10.4 0.00 0.47 0.00 80 1017.5
20260830162005 77 82 4.3 12.2 0.00 0.47 0.00 83 1017.4
20260830160005 82 80 5.2 8.7 0.00 0.47 0.00 83 1016.6
20260830155005 84 94 4.3 6.1 0.00 0.47 0.00 78 1016.6
20260830154006 86 171 0.0 2.6 0.00 0.47 0.00 75 1016.5
20260830152005 85 226 0.9 2.6 0.00 0.47 0.00 79 1016.6
20260830151005 85 239 1.7 2.6 0.00 0.47 0.00 79 1016.5
20260830150005 86 267 2.6 5.2 0.00 0.47 0.00 76 1016.3
20260830145005 88 174 0.9 2.6 0.00 0.47 0.00 74 1016.3
20260830144005 88 223 1.7 2.6 0.00 0.47 0.00 73 1016.4